UAE860 OKKK-OMDB

Flight info

Callsign UAE860
Flight time 1h 12m
Altitude 37000
Route SESRU4F SESRU DCT VUTEB VUTEB3D
Aircraft B77W/H-SDE1E2E3FGHIJ2J3J4J5M1RWXY/LB1D1

Departure

Time 2026-04-20 18:03
Airport Kuwait International Airport (OKKK)

Arrival

Time 2026-04-20 19:15
Airport Dubai International Airport (OMDB)
Time Latitude Longitude Altitude Speed Heading
2026-04-20 17:36 29.23842 47.96865 176 ft 0 kts 334°
2026-04-20 17:55 29.23838 47.96868 176 ft 3 kts 334°
2026-04-20 17:56 29.23814 47.96882 178 ft 4 kts 330°
2026-04-20 17:56 29.23791 47.96898 176 ft 4 kts 324°
2026-04-20 17:56 29.23771 47.96917 175 ft 4 kts 306°
2026-04-20 17:56 29.23762 47.96941 175 ft 3 kts 250°
2026-04-20 17:57 29.23763 47.96945 175 ft 1 kts 245°
2026-04-20 17:59 29.23762 47.96942 175 ft 4 kts 245°
2026-04-20 17:59 29.23714 47.96828 179 ft 21 kts 245°
2026-04-20 18:00 29.23654 47.96678 199 ft 21 kts 246°
2026-04-20 18:00 29.23652 47.96657 195 ft 6 kts 274°
2026-04-20 18:00 29.23752 47.96561 192 ft 33 kts 333°
2026-04-20 18:00 29.23932 47.96466 194 ft 28 kts 334°
2026-04-20 18:01 29.24076 47.96380 184 ft 13 kts 323°
2026-04-20 18:01 29.24082 47.96317 198 ft 0 kts 251°
2026-04-20 18:02 29.24081 47.96311 200 ft 6 kts 251°
2026-04-20 18:02 29.24061 47.96244 198 ft 10 kts 251°
2026-04-20 18:02 29.24029 47.96190 201 ft 6 kts 193°
2026-04-20 18:02 29.23890 47.96231 200 ft 63 kts 157°
2026-04-20 18:03 29.23145 47.96637 208 ft 176 kts 153°
2026-04-20 18:03 29.21937 47.97249 1412 ft 186 kts 158°
2026-04-20 18:03 29.20808 47.97994 2346 ft 201 kts 140°
2026-04-20 18:03 29.19948 47.99423 2567 ft 234 kts 125°
2026-04-20 18:04 29.19161 48.01144 3027 ft 255 kts 123°
2026-04-20 18:04 29.18541 48.03113 3475 ft 277 kts 103°
2026-04-20 18:04 29.18378 48.05352 4215 ft 287 kts 94°
2026-04-20 18:04 29.18338 48.07664 5044 ft 293 kts 92°
2026-04-20 18:05 29.18273 48.12401 6649 ft 303 kts 92°
2026-04-20 18:05 29.18218 48.14825 7470 ft 306 kts 92°
2026-04-20 18:05 29.18149 48.17267 8309 ft 308 kts 92°
2026-04-20 18:06 29.18070 48.19726 9132 ft 312 kts 92°
2026-04-20 18:06 29.17981 48.22218 9939 ft 315 kts 92°
2026-04-20 18:06 29.17885 48.24746 10562 ft 325 kts 92°
2026-04-20 18:06 29.17781 48.27438 10779 ft 353 kts 92°
2026-04-20 18:07 29.17705 48.29339 10913 ft 370 kts 92°
2026-04-20 18:07 29.17539 48.33449 11400 ft 398 kts 92°
2026-04-20 18:07 29.17449 48.35611 11859 ft 407 kts 92°
2026-04-20 18:07 29.17266 48.39957 12942 ft 418 kts 92°
2026-04-20 18:08 29.17171 48.42202 13592 ft 421 kts 92°
2026-04-20 18:08 29.17028 48.45565 14460 ft 425 kts 92°
2026-04-20 18:08 29.16885 48.48917 15020 ft 430 kts 92°
2026-04-20 18:08 29.16737 48.52357 15035 ft 434 kts 92°
2026-04-20 18:09 29.16588 48.55799 15044 ft 432 kts 92°
2026-04-20 18:09 29.16439 48.59229 15149 ft 434 kts 92°
2026-04-20 18:09 29.16287 48.62697 15944 ft 439 kts 92°
2026-04-20 18:09 29.16134 48.66195 16892 ft 441 kts 93°
2026-04-20 18:10 29.15979 48.69713 17790 ft 445 kts 94°
2026-04-20 18:10 29.15820 48.73265 18517 ft 451 kts 94°
2026-04-20 18:10 29.15659 48.76876 19199 ft 457 kts 94°
2026-04-20 18:10 29.15495 48.80516 19928 ft 461 kts 95°
2026-04-20 18:11 29.15329 48.84198 20681 ft 465 kts 95°
2026-04-20 18:11 29.15032 48.87869 21298 ft 465 kts 104°
2026-04-20 18:11 29.13949 48.91336 21827 ft 464 kts 122°
2026-04-20 18:11 29.12105 48.94331 22547 ft 458 kts 137°
2026-04-20 18:12 29.09756 48.96736 23272 ft 452 kts 146°
2026-04-20 18:12 29.07307 48.99025 23813 ft 458 kts 146°
2026-04-20 18:12 29.04841 49.01357 24341 ft 462 kts 145°
2026-04-20 18:12 29.02367 49.03728 24912 ft 466 kts 145°
2026-04-20 18:13 28.99887 49.06130 25487 ft 470 kts 145°
2026-04-20 18:13 28.97384 49.08565 25879 ft 477 kts 144°
2026-04-20 18:13 28.94846 49.11039 26401 ft 481 kts 144°
2026-04-20 18:13 28.92359 49.13631 26957 ft 488 kts 139°
2026-04-20 18:14 28.90083 49.16554 27508 ft 494 kts 135°
2026-04-20 18:14 28.87876 49.19564 28031 ft 498 kts 134°
2026-04-20 18:14 28.85651 49.22616 28545 ft 501 kts 134°
2026-04-20 18:14 28.83409 49.25678 28982 ft 505 kts 135°
2026-04-20 18:15 28.81159 49.28728 29202 ft 514 kts 135°
2026-04-20 18:15 28.78803 49.31897 29523 ft 519 kts 135°
2026-04-20 18:15 28.76467 49.35030 30045 ft 520 kts 135°
2026-04-20 18:15 28.74152 49.38128 30489 ft 520 kts 135°
2026-04-20 18:16 28.71809 49.41260 31017 ft 518 kts 135°
2026-04-20 18:16 28.69484 49.44365 31549 ft 515 kts 135°
2026-04-20 18:16 28.67155 49.47473 31968 ft 516 kts 135°
2026-04-20 18:16 28.64810 49.50597 32202 ft 521 kts 135°
2026-04-20 18:17 28.62457 49.53731 32624 ft 520 kts 135°
2026-04-20 18:17 28.60116 49.56851 33197 ft 517 kts 135°
2026-04-20 18:17 28.57789 49.59950 33763 ft 514 kts 135°
2026-04-20 18:17 28.55470 49.63036 34183 ft 513 kts 135°
2026-04-20 18:18 28.53149 49.66118 34458 ft 515 kts 136°
2026-04-20 18:18 28.50800 49.69233 34505 ft 522 kts 136°
2026-04-20 18:18 28.48429 49.72377 34705 ft 525 kts 136°
2026-04-20 18:18 28.46058 49.75524 35082 ft 524 kts 136°
2026-04-20 18:19 28.43659 49.78626 35502 ft 519 kts 140°
2026-04-20 18:19 28.41076 49.81452 35814 ft 515 kts 145°
2026-04-20 18:19 28.38303 49.84006 36058 ft 510 kts 152°
2026-04-20 18:19 28.35366 49.86253 36231 ft 510 kts 154°
2026-04-20 18:20 28.32393 49.88463 36452 ft 512 kts 154°
2026-04-20 18:20 28.29416 49.90677 36705 ft 512 kts 154°
2026-04-20 18:20 28.26433 49.92907 36867 ft 516 kts 154°
2026-04-20 18:20 28.23434 49.95161 36907 ft 518 kts 154°
2026-04-20 18:21 28.17474 49.99679 36887 ft 511 kts 153°
2026-04-20 18:21 28.11596 50.04154 36905 ft 509 kts 153°
2026-04-20 18:22 28.05725 50.08652 36903 ft 510 kts 153°
2026-04-20 18:22 27.99850 50.13153 36883 ft 511 kts 153°
2026-04-20 18:23 27.93955 50.17660 36892 ft 512 kts 153°
2026-04-20 18:23 27.88041 50.22173 36898 ft 513 kts 153°
2026-04-20 18:24 27.82117 50.26688 36866 ft 514 kts 153°
2026-04-20 18:24 27.76177 50.31208 36880 ft 515 kts 153°
2026-04-20 18:25 27.70225 50.35732 36887 ft 516 kts 153°
2026-04-20 18:25 27.64261 50.40258 36848 ft 517 kts 153°
2026-04-20 18:26 27.58278 50.44792 36890 ft 519 kts 153°
2026-04-20 18:26 27.52282 50.49331 36869 ft 520 kts 153°
2026-04-20 18:27 27.46309 50.53848 36878 ft 520 kts 153°
2026-04-20 18:27 27.40304 50.58382 36873 ft 520 kts 153°
2026-04-20 18:28 27.34305 50.62906 36873 ft 519 kts 153°
2026-04-20 18:28 27.28685 50.68108 36875 ft 535 kts 137°
2026-04-20 18:29 27.26300 50.71392 36856 ft 548 kts 129°
2026-04-20 18:29 27.24211 50.75010 36873 ft 555 kts 126°
2026-04-20 18:29 27.20083 50.82439 36872 ft 565 kts 126°
2026-04-20 18:30 27.15872 50.89932 36867 ft 567 kts 126°
2026-04-20 18:30 27.11661 50.97333 36831 ft 559 kts 127°
2026-04-20 18:31 27.07449 51.04685 36857 ft 562 kts 127°
2026-04-20 18:31 27.03209 51.12076 36860 ft 565 kts 127°
2026-04-20 18:32 26.98952 51.19496 36859 ft 567 kts 127°
2026-04-20 18:32 26.94672 51.26948 36846 ft 570 kts 127°
2026-04-20 18:33 26.90373 51.34419 36862 ft 572 kts 127°
2026-04-20 18:33 26.86055 51.41912 36848 ft 572 kts 127°
2026-04-20 18:34 26.81769 51.49338 36826 ft 571 kts 127°
2026-04-20 18:34 26.77453 51.56802 36839 ft 571 kts 127°
2026-04-20 18:35 26.73437 51.64478 36840 ft 574 kts 118°
2026-04-20 18:35 26.70542 51.72816 36843 ft 577 kts 109°
2026-04-20 18:36 26.68089 51.81350 36834 ft 577 kts 109°
2026-04-20 18:36 26.65508 51.89861 36836 ft 578 kts 110°
2026-04-20 18:37 26.62811 51.98337 36842 ft 579 kts 111°
2026-04-20 18:37 26.60021 52.06784 36851 ft 580 kts 111°
2026-04-20 18:38 26.57234 52.15246 36842 ft 581 kts 111°
2026-04-20 18:38 26.54455 52.23735 36832 ft 582 kts 111°
2026-04-20 18:39 26.51673 52.32233 36834 ft 583 kts 111°
2026-04-20 18:39 26.48881 52.40732 36836 ft 584 kts 111°
2026-04-20 18:40 26.46080 52.49234 36830 ft 584 kts 111°
2026-04-20 18:40 26.43275 52.57729 36814 ft 582 kts 110°
2026-04-20 18:41 26.40480 52.66194 36828 ft 581 kts 110°
2026-04-20 18:41 26.37711 52.74665 36829 ft 581 kts 110°
2026-04-20 18:42 26.34944 52.83097 36833 ft 576 kts 110°
2026-04-20 18:42 26.33564 52.87241 36813 ft 564 kts 111°
2026-04-20 18:42 26.32203 52.91299 36810 ft 555 kts 111°
2026-04-20 18:43 26.29489 52.99370 36837 ft 559 kts 111°
2026-04-20 18:43 26.26752 53.07513 36835 ft 561 kts 111°
2026-04-20 18:44 26.24016 53.15655 36825 ft 560 kts 111°
2026-04-20 18:44 26.22671 53.19651 36671 ft 557 kts 111°
2026-04-20 18:44 26.21317 53.23669 36365 ft 552 kts 111°
2026-04-20 18:45 26.19973 53.27653 35788 ft 549 kts 111°
2026-04-20 18:45 26.18632 53.31622 35106 ft 547 kts 111°
2026-04-20 18:45 26.17184 53.35527 34463 ft 543 kts 115°
2026-04-20 18:45 26.15524 53.39342 33827 ft 538 kts 118°
2026-04-20 18:46 26.13786 53.43011 33111 ft 533 kts 120°
2026-04-20 18:46 26.12140 53.46629 32404 ft 530 kts 116°
2026-04-20 18:46 26.10718 53.50383 31718 ft 527 kts 113°
2026-04-20 18:46 26.09373 53.54161 31179 ft 516 kts 113°
2026-04-20 18:47 26.08044 53.57778 30919 ft 484 kts 115°
2026-04-20 18:47 26.06726 53.61132 30660 ft 467 kts 116°
2026-04-20 18:47 26.05359 53.64413 30278 ft 466 kts 117°
2026-04-20 18:47 26.04026 53.67693 29838 ft 463 kts 116°
2026-04-20 18:48 26.02718 53.70939 29411 ft 458 kts 116°
2026-04-20 18:48 26.01416 53.74144 28958 ft 454 kts 116°
2026-04-20 18:48 26.00141 53.77294 28209 ft 440 kts 116°
2026-04-20 18:48 25.98937 53.80347 27114 ft 435 kts 116°
2026-04-20 18:49 25.97739 53.83419 25967 ft 433 kts 116°
2026-04-20 18:49 25.96542 53.86488 24840 ft 431 kts 116°
2026-04-20 18:49 25.95361 53.89511 24483 ft 408 kts 116°
2026-04-20 18:49 25.94270 53.92298 24090 ft 390 kts 116°
2026-04-20 18:50 25.93205 53.95006 23751 ft 378 kts 116°
2026-04-20 18:50 25.92141 53.97694 23427 ft 384 kts 116°
2026-04-20 18:50 25.91007 54.00445 23026 ft 400 kts 118°
2026-04-20 18:50 25.89741 54.03285 22614 ft 419 kts 119°
2026-04-20 18:51 25.88418 54.06186 22213 ft 422 kts 119°
2026-04-20 18:51 25.87100 54.09089 21798 ft 420 kts 119°
2026-04-20 18:51 25.85813 54.11985 21388 ft 416 kts 118°
2026-04-20 18:51 25.84550 54.14865 20983 ft 413 kts 118°
2026-04-20 18:52 25.83295 54.17715 20574 ft 409 kts 118°
2026-04-20 18:52 25.82051 54.20543 20189 ft 406 kts 117°
2026-04-20 18:52 25.81040 54.23463 19788 ft 406 kts 108°
2026-04-20 18:52 25.80390 54.26501 19395 ft 404 kts 102°
2026-04-20 18:53 25.79919 54.29566 19009 ft 401 kts 101°
2026-04-20 18:53 25.79574 54.31573 18752 ft 400 kts 104°
2026-04-20 18:53 25.78837 54.34541 18354 ft 398 kts 111°
2026-04-20 18:53 25.77792 54.37380 17944 ft 400 kts 117°
2026-04-20 18:54 25.76543 54.40161 17497 ft 404 kts 119°
2026-04-20 18:54 25.75326 54.42964 17056 ft 403 kts 116°
2026-04-20 18:54 25.74242 54.45818 16635 ft 399 kts 113°
2026-04-20 18:54 25.73273 54.48690 16216 ft 396 kts 111°
2026-04-20 18:55 25.72373 54.51554 15826 ft 392 kts 110°
2026-04-20 18:55 25.71496 54.54409 15418 ft 389 kts 110°
2026-04-20 18:55 25.70630 54.57221 15026 ft 385 kts 110°
2026-04-20 18:55 25.69761 54.60020 14639 ft 382 kts 110°
2026-04-20 18:56 25.68884 54.62796 14237 ft 379 kts 110°
2026-04-20 18:56 25.68006 54.65533 13938 ft 374 kts 110°
2026-04-20 18:56 25.67138 54.68230 13576 ft 370 kts 110°
2026-04-20 18:56 25.66276 54.70908 13163 ft 368 kts 110°
2026-04-20 18:57 25.65432 54.73542 12933 ft 360 kts 110°
2026-04-20 18:57 25.64599 54.76139 12603 ft 349 kts 110°
2026-04-20 18:57 25.63818 54.78570 12415 ft 321 kts 110°
2026-04-20 18:57 25.63086 54.80845 12303 ft 308 kts 110°
2026-04-20 18:58 25.62373 54.83063 12049 ft 304 kts 110°
2026-04-20 18:58 25.61662 54.85271 11686 ft 305 kts 109°
2026-04-20 18:58 25.60923 54.87473 11341 ft 305 kts 112°
2026-04-20 18:58 25.60084 54.89633 10978 ft 306 kts 113°
2026-04-20 18:59 25.59223 54.91770 10711 ft 302 kts 113°
2026-04-20 18:59 25.58372 54.93884 10509 ft 297 kts 113°
2026-04-20 18:59 25.57545 54.95961 10249 ft 294 kts 113°
2026-04-20 18:59 25.56729 54.98026 10068 ft 288 kts 112°
2026-04-20 19:00 25.55934 55.00044 10031 ft 287 kts 112°
2026-04-20 19:00 25.55125 55.02100 10038 ft 294 kts 112°
2026-04-20 19:00 25.54269 55.04173 10026 ft 298 kts 117°
2026-04-20 19:00 25.53258 55.06178 10023 ft 297 kts 120°
2026-04-20 19:01 25.52208 55.08144 10013 ft 296 kts 120°
2026-04-20 19:01 25.51163 55.10102 10006 ft 294 kts 120°
2026-04-20 19:01 25.50135 55.12050 10005 ft 293 kts 119°
2026-04-20 19:01 25.49113 55.14003 10006 ft 293 kts 119°
2026-04-20 19:02 25.48093 55.15963 9990 ft 296 kts 119°
2026-04-20 19:02 25.47059 55.17952 9833 ft 299 kts 119°
2026-04-20 19:02 25.46014 55.19933 9680 ft 297 kts 122°
2026-04-20 19:02 25.44748 55.21720 9520 ft 294 kts 132°
2026-04-20 19:03 25.43357 55.23365 9366 ft 291 kts 133°
2026-04-20 19:03 25.41969 55.24982 9207 ft 289 kts 133°
2026-04-20 19:03 25.40604 55.26607 9058 ft 287 kts 132°
2026-04-20 19:03 25.39259 55.28236 8909 ft 286 kts 131°
2026-04-20 19:04 25.37933 55.29857 8770 ft 283 kts 131°
2026-04-20 19:04 25.36627 55.31458 8610 ft 276 kts 131°
2026-04-20 19:04 25.35293 55.32923 8423 ft 265 kts 145°
2026-04-20 19:04 25.33727 55.33960 8334 ft 264 kts 153°
2026-04-20 19:05 25.32081 55.34884 8195 ft 265 kts 154°
2026-04-20 19:05 25.30438 55.35795 8044 ft 264 kts 154°
2026-04-20 19:05 25.28805 55.36715 7909 ft 263 kts 153°
2026-04-20 19:05 25.27185 55.37640 7770 ft 262 kts 153°
2026-04-20 19:06 25.25571 55.38571 7630 ft 260 kts 152°
2026-04-20 19:06 25.23970 55.39503 7490 ft 259 kts 152°
2026-04-20 19:06 25.22385 55.40429 7355 ft 257 kts 152°
2026-04-20 19:06 25.20804 55.41352 7143 ft 259 kts 152°
2026-04-20 19:07 25.19203 55.42288 6843 ft 263 kts 152°
2026-04-20 19:07 25.17584 55.43235 6509 ft 264 kts 152°
2026-04-20 19:07 25.15955 55.44188 6167 ft 266 kts 151°
2026-04-20 19:07 25.14316 55.45146 5810 ft 268 kts 151°
2026-04-20 19:08 25.12671 55.46107 5485 ft 268 kts 152°
2026-04-20 19:08 25.10127 55.48823 4878 ft 252 kts 117°
2026-04-20 19:08 25.09241 55.50473 4620 ft 250 kts 120°
2026-04-20 19:09 25.08373 55.52127 4302 ft 245 kts 109°
2026-04-20 19:09 25.08140 55.53937 3977 ft 236 kts 77°
2026-04-20 19:09 25.08785 55.55538 3684 ft 226 kts 47°
2026-04-20 19:09 25.09848 55.56781 3424 ft 222 kts 43°
2026-04-20 19:10 25.10938 55.57990 3145 ft 222 kts 40°
2026-04-20 19:10 25.12229 55.58824 2825 ft 216 kts
2026-04-20 19:10 25.13667 55.58665 2638 ft 205 kts 333°
2026-04-20 19:10 25.14671 55.57617 2324 ft 202 kts 296°
2026-04-20 19:11 25.15068 55.56157 2117 ft 195 kts 287°
2026-04-20 19:11 25.15525 55.54742 2112 ft 197 kts 294°
2026-04-20 19:11 25.16092 55.53364 2065 ft 197 kts 295°
2026-04-20 19:11 25.16697 55.52025 2024 ft 192 kts 300°
2026-04-20 19:12 25.17362 55.50760 2016 ft 189 kts 302°
2026-04-20 19:12 25.18035 55.49538 2040 ft 182 kts 302°
2026-04-20 19:12 25.18690 55.48354 1794 ft 177 kts 302°
2026-04-20 19:12 25.19335 55.47190 1589 ft 177 kts 302°
2026-04-20 19:13 25.19957 55.46066 1357 ft 165 kts 302°
2026-04-20 19:13 25.20528 55.45035 1161 ft 150 kts 302°
2026-04-20 19:13 25.21067 55.44060 971 ft 149 kts 302°
2026-04-20 19:13 25.21616 55.43092 761 ft 149 kts 303°
2026-04-20 19:14 25.22159 55.42123 609 ft 149 kts 300°
2026-04-20 19:14 25.22678 55.41136 420 ft 149 kts 301°
2026-04-20 19:14 25.23214 55.40148 247 ft 150 kts 302°
2026-04-20 19:14 25.23764 55.39190 34 ft 145 kts 301°
2026-04-20 19:15 25.24211 55.38368 31 ft 99 kts 301°
2026-04-20 19:15 25.24447 55.37942 30 ft 30 kts 301°
2026-04-20 19:15 25.24526 55.37796 28 ft 21 kts 302°
2026-04-20 19:15 25.24590 55.37648 27 ft 21 kts 284°
2026-04-20 19:16 25.24612 55.37503 27 ft 14 kts 275°
2026-04-20 19:16 25.24612 55.37395 27 ft 14 kts 270°
2026-04-20 19:16 25.24623 55.37287 26 ft 14 kts 283°
2026-04-20 19:16 25.24664 55.37188 27 ft 14 kts 302°
2026-04-20 19:17 25.24717 55.37096 27 ft 14 kts 302°
2026-04-20 19:17 25.24769 55.37003 27 ft 14 kts 302°
2026-04-20 19:17 25.24821 55.36909 27 ft 14 kts 301°
2026-04-20 19:17 25.24858 55.36808 27 ft 14 kts 284°
2026-04-20 19:18 25.24884 55.36702 26 ft 14 kts 287°
2026-04-20 19:18 25.24927 55.36604 30 ft 14 kts 301°
2026-04-20 19:18 25.24981 55.36509 26 ft 14 kts 302°
2026-04-20 19:18 25.25033 55.36415 26 ft 14 kts 300°
2026-04-20 19:19 25.25086 55.36321 29 ft 14 kts 303°
2026-04-20 19:19 25.25098 55.36217 27 ft 15 kts 249°
2026-04-20 19:19 25.25106 55.36107 27 ft 15 kts 295°
2026-04-20 19:19 25.25130 55.36047 30 ft 4 kts 271°
2026-04-20 19:20 25.25108 55.36021 29 ft 5 kts 214°
2026-04-20 19:20 25.25075 55.35998 30 ft 6 kts 213°
2026-04-20 19:20 25.25068 55.35993 29 ft 1 kts 211°
2026-04-20 19:20 25.25061 55.35989 30 ft 2 kts 210°
2026-04-20 19:21 25.25058 55.35987 30 ft 0 kts 210°
2026-04-20 19:21 25.25056 55.35985 29 ft 0 kts 210°